Year,Month,Day,Hour,Minute,Value (Times are PST for temperature in C)
2015,08,02,00,00,23.40
2015,08,02,00,01,23.40
2015,08,02,00,02,23.40
2015,08,02,00,03,23.40
2015,08,02,00,04,23.40
2015,08,02,00,05,23.40
2015,08,02,00,06,23.40
2015,08,02,00,07,23.40
2015,08,02,00,08,23.40
2015,08,02,00,09,23.30
2015,08,02,00,10,23.30
2015,08,02,00,11,23.30
2015,08,02,00,12,23.30
2015,08,02,00,13,23.30
2015,08,02,00,14,23.30
2015,08,02,00,15,23.30
2015,08,02,00,16,23.30
2015,08,02,00,17,23.30
2015,08,02,00,18,23.30
2015,08,02,00,19,23.30
2015,08,02,00,20,23.40
2015,08,02,00,21,23.40
2015,08,02,00,22,23.40
2015,08,02,00,23,23.40
2015,08,02,00,24,23.40
2015,08,02,00,25,23.40
2015,08,02,00,26,23.40
2015,08,02,00,27,23.40
2015,08,02,00,28,23.40
2015,08,02,00,29,23.40
2015,08,02,00,30,23.40
2015,08,02,00,31,23.40
2015,08,02,00,32,23.40
2015,08,02,00,33,23.40
2015,08,02,00,34,23.40
2015,08,02,00,35,23.50
2015,08,02,00,36,23.50
2015,08,02,00,37,23.40
2015,08,02,00,38,23.40
2015,08,02,00,39,23.40
2015,08,02,00,40,23.40
2015,08,02,00,41,23.40
2015,08,02,00,42,23.40
2015,08,02,00,43,23.40
2015,08,02,00,44,23.40
2015,08,02,00,45,23.40
2015,08,02,00,46,23.40
2015,08,02,00,47,23.40
2015,08,02,00,48,23.40
2015,08,02,00,49,23.40
2015,08,02,00,50,23.40
2015,08,02,00,51,23.30
2015,08,02,00,52,23.30
2015,08,02,00,53,23.40
2015,08,02,00,54,23.40
2015,08,02,00,55,23.40
2015,08,02,00,56,23.40
2015,08,02,00,57,23.40
2015,08,02,00,58,23.40
2015,08,02,00,59,23.40
2015,08,02,01,00,23.40
2015,08,02,01,01,23.40
2015,08,02,01,02,23.40
2015,08,02,01,03,23.40
2015,08,02,01,04,23.40
2015,08,02,01,05,23.40
2015,08,02,01,06,23.40
2015,08,02,01,07,23.40
2015,08,02,01,08,23.40
2015,08,02,01,09,23.40
2015,08,02,01,10,23.40
2015,08,02,01,11,23.40
2015,08,02,01,12,23.40
2015,08,02,01,13,23.40
2015,08,02,01,14,23.40
2015,08,02,01,15,23.40
2015,08,02,01,16,23.40
2015,08,02,01,17,23.40
2015,08,02,01,18,23.40
2015,08,02,01,19,23.40
2015,08,02,01,20,23.40
2015,08,02,01,21,23.40
2015,08,02,01,22,23.40
2015,08,02,01,23,23.40
2015,08,02,01,24,23.40
2015,08,02,01,25,23.40
2015,08,02,01,26,23.40
2015,08,02,01,27,23.30
2015,08,02,01,28,23.30
2015,08,02,01,29,23.30
2015,08,02,01,30,23.30
2015,08,02,01,31,23.30
2015,08,02,01,32,23.30
2015,08,02,01,33,23.30
2015,08,02,01,34,23.30
2015,08,02,01,35,23.30
2015,08,02,01,36,23.30
2015,08,02,01,37,23.30
2015,08,02,01,38,23.30
2015,08,02,01,39,23.30
2015,08,02,01,40,23.30
2015,08,02,01,41,23.20
2015,08,02,01,42,23.20
2015,08,02,01,43,23.20
2015,08,02,01,44,23.20
2015,08,02,01,45,23.20
2015,08,02,01,46,23.20
2015,08,02,01,47,23.20
2015,08,02,01,48,23.20
2015,08,02,01,49,23.10
2015,08,02,01,50,23.10
2015,08,02,01,51,23.10
2015,08,02,01,52,23.10
2015,08,02,01,53,23.10
2015,08,02,01,54,23.00
2015,08,02,01,55,23.00
2015,08,02,01,56,23.00
2015,08,02,01,57,23.00
2015,08,02,01,58,23.00
2015,08,02,01,59,22.90
2015,08,02,02,00,22.90
2015,08,02,02,01,22.90
2015,08,02,02,02,22.90
2015,08,02,02,03,22.90
2015,08,02,02,04,22.90
2015,08,02,02,05,22.90
2015,08,02,02,06,22.80
2015,08,02,02,07,22.80
2015,08,02,02,08,22.80
2015,08,02,02,09,22.80
2015,08,02,02,10,22.70
2015,08,02,02,11,22.70
2015,08,02,02,12,22.70
2015,08,02,02,13,22.70
2015,08,02,02,14,22.70
2015,08,02,02,15,22.60
2015,08,02,02,16,22.60
2015,08,02,02,17,22.60
2015,08,02,02,18,22.50
2015,08,02,02,19,22.50
2015,08,02,02,20,22.40
2015,08,02,02,21,22.40
2015,08,02,02,22,22.40
2015,08,02,02,23,22.30
2015,08,02,02,24,22.30
2015,08,02,02,25,22.30
2015,08,02,02,26,22.20
2015,08,02,02,27,22.20
2015,08,02,02,28,22.10
2015,08,02,02,29,22.10
2015,08,02,02,30,22.10
2015,08,02,02,31,22.00
2015,08,02,02,32,22.00
2015,08,02,02,33,21.90
2015,08,02,02,34,21.90
2015,08,02,02,35,21.90
2015,08,02,02,36,21.90
2015,08,02,02,37,21.80
2015,08,02,02,38,21.80
2015,08,02,02,39,21.80
2015,08,02,02,40,21.80
2015,08,02,02,41,21.80
2015,08,02,02,42,21.80
2015,08,02,02,43,21.70
2015,08,02,02,44,21.70
2015,08,02,02,45,21.70
2015,08,02,02,46,21.70
2015,08,02,02,47,21.70
2015,08,02,02,48,21.70
2015,08,02,02,49,21.60
2015,08,02,02,50,21.60
2015,08,02,02,51,21.60
2015,08,02,02,52,21.60
2015,08,02,02,53,21.60
2015,08,02,02,54,21.60
2015,08,02,02,55,21.50
2015,08,02,02,56,21.50
2015,08,02,02,57,21.50
2015,08,02,02,58,21.40
2015,08,02,02,59,21.40
2015,08,02,03,00,21.40
2015,08,02,03,01,21.40
2015,08,02,03,02,21.40
2015,08,02,03,03,21.40
2015,08,02,03,04,21.30
2015,08,02,03,05,21.30
2015,08,02,03,06,21.30
2015,08,02,03,07,21.30
2015,08,02,03,08,21.30
2015,08,02,03,09,21.30
2015,08,02,03,10,21.30
2015,08,02,03,11,21.20
2015,08,02,03,12,21.20
2015,08,02,03,13,21.20
2015,08,02,03,14,21.20
2015,08,02,03,15,21.10
2015,08,02,03,16,21.10
2015,08,02,03,17,21.10
2015,08,02,03,18,21.10
2015,08,02,03,19,21.10
2015,08,02,03,20,21.00
2015,08,02,03,21,21.00
2015,08,02,03,22,21.00
2015,08,02,03,23,21.00
2015,08,02,03,24,21.00
2015,08,02,03,25,21.00
2015,08,02,03,26,21.00
2015,08,02,03,27,21.00
2015,08,02,03,28,21.00
2015,08,02,03,29,21.00
2015,08,02,03,30,21.00
2015,08,02,03,31,21.00
2015,08,02,03,32,21.00
2015,08,02,03,33,20.90
2015,08,02,03,34,20.90
2015,08,02,03,35,20.90
2015,08,02,03,36,20.90
2015,08,02,03,37,20.90
2015,08,02,03,38,20.90
2015,08,02,03,39,20.90
2015,08,02,03,40,20.90
2015,08,02,03,41,20.90
2015,08,02,03,42,20.90
2015,08,02,03,43,20.90
2015,08,02,03,44,20.90
2015,08,02,03,45,20.90
2015,08,02,03,46,20.90
2015,08,02,03,47,20.90
2015,08,02,03,48,20.90
2015,08,02,03,49,20.90
2015,08,02,03,50,20.90
2015,08,02,03,51,20.90
2015,08,02,03,52,20.90
2015,08,02,03,53,20.80
2015,08,02,03,54,20.80
2015,08,02,03,55,20.80
2015,08,02,03,56,20.80
2015,08,02,03,57,20.80
2015,08,02,03,58,20.80
2015,08,02,03,59,20.90
2015,08,02,04,00,20.90
2015,08,02,04,01,20.90
2015,08,02,04,02,20.90
2015,08,02,04,03,20.90
2015,08,02,04,04,20.90
2015,08,02,04,05,20.90
2015,08,02,04,06,20.90
2015,08,02,04,07,20.90
2015,08,02,04,08,20.90
2015,08,02,04,09,20.90
2015,08,02,04,10,20.90
2015,08,02,04,11,20.90
2015,08,02,04,12,20.90
2015,08,02,04,13,20.90
2015,08,02,04,14,20.90
2015,08,02,04,15,20.90
2015,08,02,04,16,20.90
2015,08,02,04,17,20.90
2015,08,02,04,18,20.90
2015,08,02,04,19,20.90
2015,08,02,04,20,20.90
2015,08,02,04,21,20.90
2015,08,02,04,22,20.90
2015,08,02,04,23,20.90
2015,08,02,04,24,20.90
2015,08,02,04,25,20.90
2015,08,02,04,26,20.80
2015,08,02,04,27,20.80
2015,08,02,04,28,20.80
2015,08,02,04,29,20.80
2015,08,02,04,30,20.80
2015,08,02,04,31,20.80
2015,08,02,04,32,20.80
2015,08,02,04,33,20.80
2015,08,02,04,34,20.80
2015,08,02,04,35,20.80
2015,08,02,04,36,20.80
2015,08,02,04,37,20.80
2015,08,02,04,38,20.80
2015,08,02,04,39,20.80
2015,08,02,04,40,20.80
2015,08,02,04,41,20.80
2015,08,02,04,42,20.80
2015,08,02,04,43,20.80
2015,08,02,04,44,20.70
2015,08,02,04,45,20.70
2015,08,02,04,46,20.70
2015,08,02,04,47,20.70
2015,08,02,04,48,20.70
2015,08,02,04,49,20.60
2015,08,02,04,50,20.60
2015,08,02,04,51,20.60
2015,08,02,04,52,20.60
2015,08,02,04,53,20.60
2015,08,02,04,54,20.50
2015,08,02,04,55,20.50
2015,08,02,04,56,20.50
2015,08,02,04,57,20.40
2015,08,02,04,58,20.40
2015,08,02,04,59,20.40
2015,08,02,05,00,20.40
2015,08,02,05,01,20.30
2015,08,02,05,02,20.30
2015,08,02,05,03,20.30
2015,08,02,05,04,20.30
2015,08,02,05,05,20.30
2015,08,02,05,06,20.20
2015,08,02,05,07,20.20
2015,08,02,05,08,20.20
2015,08,02,05,09,20.20
2015,08,02,05,10,20.10
2015,08,02,05,11,20.10
2015,08,02,05,12,20.10
2015,08,02,05,13,20.00
2015,08,02,05,14,20.00
2015,08,02,05,15,20.00
2015,08,02,05,16,19.90
2015,08,02,05,17,19.90
2015,08,02,05,18,19.90
2015,08,02,05,19,19.80
2015,08,02,05,20,19.80
2015,08,02,05,21,19.80
2015,08,02,05,22,19.80
2015,08,02,05,23,19.70
2015,08,02,05,24,19.70
2015,08,02,05,25,19.70
2015,08,02,05,26,19.70
2015,08,02,05,27,19.70
2015,08,02,05,28,19.70
2015,08,02,05,29,19.70
2015,08,02,05,30,19.70
2015,08,02,05,31,19.70
2015,08,02,05,32,19.70
2015,08,02,05,33,19.70
2015,08,02,05,34,19.70
2015,08,02,05,35,19.70
2015,08,02,05,36,19.70
2015,08,02,05,37,19.70
2015,08,02,05,38,19.70
2015,08,02,05,39,19.70
2015,08,02,05,40,19.70
2015,08,02,05,41,19.70
2015,08,02,05,42,19.60
2015,08,02,05,43,19.60
2015,08,02,05,44,19.60
2015,08,02,05,45,19.60
2015,08,02,05,46,19.60
2015,08,02,05,47,19.50
2015,08,02,05,48,19.50
2015,08,02,05,49,19.50
2015,08,02,05,50,19.50
2015,08,02,05,51,19.50
2015,08,02,05,52,19.50
2015,08,02,05,53,19.50
2015,08,02,05,54,19.50
2015,08,02,05,55,19.50
2015,08,02,05,56,19.50
2015,08,02,05,57,19.50
2015,08,02,05,58,19.50
2015,08,02,05,59,19.50
2015,08,02,06,00,19.50
2015,08,02,06,01,19.50
2015,08,02,06,02,19.50
2015,08,02,06,03,19.50
2015,08,02,06,04,19.50
2015,08,02,06,05,19.50
2015,08,02,06,06,19.50
2015,08,02,06,07,19.60
2015,08,02,06,08,19.60
2015,08,02,06,09,19.60
2015,08,02,06,10,19.50
2015,08,02,06,11,19.50
2015,08,02,06,12,19.50
2015,08,02,06,13,19.40
2015,08,02,06,14,19.40
2015,08,02,06,15,19.40
2015,08,02,06,16,19.40
2015,08,02,06,17,19.40
2015,08,02,06,18,19.40
2015,08,02,06,19,19.40
2015,08,02,06,20,19.40
2015,08,02,06,21,19.40
2015,08,02,06,22,19.40
2015,08,02,06,23,19.40
2015,08,02,06,24,19.30
2015,08,02,06,25,19.30
2015,08,02,06,26,19.30
2015,08,02,06,27,19.30
2015,08,02,06,28,19.30
2015,08,02,06,29,19.30
2015,08,02,06,30,19.30
2015,08,02,06,31,19.30
2015,08,02,06,32,19.30
2015,08,02,06,33,19.30
2015,08,02,06,34,19.30
2015,08,02,06,35,19.20
2015,08,02,06,36,19.20
2015,08,02,06,37,19.20
2015,08,02,06,38,19.20
2015,08,02,06,39,19.20
2015,08,02,06,40,19.20
2015,08,02,06,41,19.20
2015,08,02,06,42,19.20
2015,08,02,06,43,19.20
2015,08,02,06,44,19.20
2015,08,02,06,45,19.10
2015,08,02,06,46,19.10
2015,08,02,06,47,19.10
2015,08,02,06,48,19.10
2015,08,02,06,49,19.10
2015,08,02,06,50,19.10
2015,08,02,06,51,19.10
2015,08,02,06,52,19.10
2015,08,02,06,53,19.10
2015,08,02,06,54,19.20
2015,08,02,06,55,19.20
2015,08,02,06,56,19.20
2015,08,02,06,57,19.20
2015,08,02,06,58,19.20
2015,08,02,06,59,19.20
2015,08,02,07,00,19.20
2015,08,02,07,01,19.30
2015,08,02,07,02,19.30
2015,08,02,07,03,19.30
2015,08,02,07,04,19.30
2015,08,02,07,05,19.30
2015,08,02,07,06,19.40
2015,08,02,07,07,19.40
2015,08,02,07,08,19.40
2015,08,02,07,09,19.40
2015,08,02,07,10,19.40
2015,08,02,07,11,19.40
2015,08,02,07,12,19.40
2015,08,02,07,13,19.40
2015,08,02,07,14,19.40
2015,08,02,07,15,19.30
2015,08,02,07,16,19.30
2015,08,02,07,17,19.30
2015,08,02,07,18,19.30
2015,08,02,07,19,19.30
2015,08,02,07,20,19.30
2015,08,02,07,21,19.30
2015,08,02,07,22,19.30
2015,08,02,07,23,19.30
2015,08,02,07,24,19.40
2015,08,02,07,25,19.40
2015,08,02,07,26,19.40
2015,08,02,07,27,19.40
2015,08,02,07,28,19.40
2015,08,02,07,29,19.40
2015,08,02,07,30,19.50
2015,08,02,07,31,19.50
2015,08,02,07,32,19.50
2015,08,02,07,33,19.60
2015,08,02,07,34,19.60
2015,08,02,07,35,19.60
2015,08,02,07,36,19.60
2015,08,02,07,37,19.60
2015,08,02,07,38,19.60
2015,08,02,07,39,19.70
2015,08,02,07,40,19.70
2015,08,02,07,41,19.70
2015,08,02,07,42,19.70
2015,08,02,07,43,19.70
2015,08,02,07,44,19.80
2015,08,02,07,45,19.80
2015,08,02,07,46,19.80
2015,08,02,07,47,19.80
2015,08,02,07,48,19.80
2015,08,02,07,49,19.80
2015,08,02,07,50,19.80
2015,08,02,07,51,19.80
2015,08,02,07,52,19.90
2015,08,02,07,53,19.80
2015,08,02,07,54,19.80
2015,08,02,07,55,19.90
2015,08,02,07,56,19.90
2015,08,02,07,57,19.90
2015,08,02,07,58,19.90
2015,08,02,07,59,19.90
2015,08,02,08,00,19.90
2015,08,02,08,01,19.90
2015,08,02,08,02,19.90
2015,08,02,08,03,19.90
2015,08,02,08,04,19.90
2015,08,02,08,05,20.00
2015,08,02,08,06,20.00
2015,08,02,08,07,20.00
2015,08,02,08,08,20.00
2015,08,02,08,09,20.00
2015,08,02,08,10,20.00
2015,08,02,08,11,20.00
2015,08,02,08,12,20.00
2015,08,02,08,13,20.00
2015,08,02,08,14,20.10
2015,08,02,08,15,20.10
2015,08,02,08,16,20.10
2015,08,02,08,17,20.10
2015,08,02,08,18,20.20
2015,08,02,08,19,20.20
2015,08,02,08,20,20.20
2015,08,02,08,21,20.20
2015,08,02,08,22,20.20
2015,08,02,08,23,20.20
2015,08,02,08,24,20.20
2015,08,02,08,25,20.30
2015,08,02,08,26,20.30
2015,08,02,08,27,20.30
2015,08,02,08,28,20.30
2015,08,02,08,29,20.30
2015,08,02,08,30,20.40
2015,08,02,08,31,20.40
2015,08,02,08,32,20.40
2015,08,02,08,33,20.40
2015,08,02,08,34,20.40
2015,08,02,08,35,20.40
2015,08,02,08,36,20.40
2015,08,02,08,37,20.40
2015,08,02,08,38,20.50
2015,08,02,08,39,20.50
2015,08,02,08,40,20.50
2015,08,02,08,41,20.50
2015,08,02,08,42,20.50
2015,08,02,08,43,20.50
2015,08,02,08,44,20.50
2015,08,02,08,45,20.50
2015,08,02,08,46,20.50
2015,08,02,08,47,20.50
2015,08,02,08,48,20.50
2015,08,02,08,49,20.50
2015,08,02,08,50,20.50
2015,08,02,08,51,20.50
2015,08,02,08,52,20.50
2015,08,02,08,53,20.50
2015,08,02,08,54,20.50
2015,08,02,08,55,20.50
2015,08,02,08,56,20.60
2015,08,02,08,57,20.60
2015,08,02,08,58,20.70
2015,08,02,08,59,20.70
2015,08,02,09,00,20.70
2015,08,02,09,01,20.80
2015,08,02,09,02,20.80
2015,08,02,09,03,20.80
2015,08,02,09,04,20.80
2015,08,02,09,05,20.90
2015,08,02,09,06,20.90
2015,08,02,09,07,20.90
2015,08,02,09,08,20.90
2015,08,02,09,09,20.90
2015,08,02,09,10,20.90
2015,08,02,09,11,20.90
2015,08,02,09,12,20.90
2015,08,02,09,13,20.90
2015,08,02,09,14,20.90
2015,08,02,09,15,21.00
2015,08,02,09,16,20.90
2015,08,02,09,17,20.90
2015,08,02,09,18,20.90
2015,08,02,09,19,20.80
2015,08,02,09,20,20.80
2015,08,02,09,21,20.90
2015,08,02,09,22,20.90
2015,08,02,09,23,20.90
2015,08,02,09,24,20.90
2015,08,02,09,25,20.90
2015,08,02,09,26,20.90
2015,08,02,09,27,20.90
2015,08,02,09,28,20.90
2015,08,02,09,29,20.90
2015,08,02,09,30,20.90
2015,08,02,09,31,21.00
2015,08,02,09,32,21.00
2015,08,02,09,33,21.10
2015,08,02,09,34,21.10
2015,08,02,09,35,21.10
2015,08,02,09,36,21.10
2015,08,02,09,37,21.10
2015,08,02,09,38,21.20
2015,08,02,09,39,21.20
2015,08,02,09,40,21.30
2015,08,02,09,41,21.30
2015,08,02,09,42,21.30
2015,08,02,09,43,21.30
2015,08,02,09,44,21.30
2015,08,02,09,45,21.20
2015,08,02,09,46,21.20
2015,08,02,09,47,21.30
2015,08,02,09,48,21.30
2015,08,02,09,49,21.30
2015,08,02,09,50,21.30
2015,08,02,09,51,21.30
2015,08,02,09,52,21.30
2015,08,02,09,53,21.30
2015,08,02,09,54,21.40
2015,08,02,09,55,21.40
2015,08,02,09,56,21.30
2015,08,02,09,57,21.30
2015,08,02,09,58,21.30
2015,08,02,09,59,21.30
2015,08,02,10,00,21.30
2015,08,02,10,01,21.30
2015,08,02,10,02,21.30
2015,08,02,10,03,21.40
2015,08,02,10,04,21.40
2015,08,02,10,05,21.30
2015,08,02,10,06,21.20
2015,08,02,10,07,21.20
2015,08,02,10,08,21.20
2015,08,02,10,09,21.20
2015,08,02,10,10,21.20
2015,08,02,10,11,21.30
2015,08,02,10,12,21.30
2015,08,02,10,13,21.40
2015,08,02,10,14,21.40
2015,08,02,10,15,21.40
2015,08,02,10,16,21.50
2015,08,02,10,17,21.50
2015,08,02,10,18,21.40
2015,08,02,10,19,21.40
2015,08,02,10,20,21.40
2015,08,02,10,21,21.50
2015,08,02,10,22,21.50
2015,08,02,10,23,21.60
2015,08,02,10,24,21.50
2015,08,02,10,25,21.50
2015,08,02,10,26,21.50
2015,08,02,10,27,21.50
2015,08,02,10,28,21.50
2015,08,02,10,29,21.50
2015,08,02,10,30,21.40
2015,08,02,10,31,21.50
2015,08,02,10,32,21.40
2015,08,02,10,33,21.40
2015,08,02,10,34,21.40
2015,08,02,10,35,21.40
2015,08,02,10,36,21.40
2015,08,02,10,37,21.50
2015,08,02,10,38,21.50
2015,08,02,10,39,21.60
2015,08,02,10,40,21.70
2015,08,02,10,41,21.80
2015,08,02,10,42,21.80
2015,08,02,10,43,21.90
2015,08,02,10,44,21.90
2015,08,02,10,45,22.00
2015,08,02,10,46,22.00
2015,08,02,10,47,22.00
2015,08,02,10,48,22.10
2015,08,02,10,49,22.10
2015,08,02,10,50,22.00
2015,08,02,10,51,21.90
2015,08,02,10,52,21.90
2015,08,02,10,53,21.90
2015,08,02,10,54,21.90
2015,08,02,10,55,21.90
2015,08,02,10,56,21.90
2015,08,02,10,57,21.90
2015,08,02,10,58,21.90
2015,08,02,10,59,21.80
2015,08,02,11,00,21.80
2015,08,02,11,01,21.80
2015,08,02,11,02,21.80
2015,08,02,11,03,21.80
2015,08,02,11,04,21.80
2015,08,02,11,05,21.70
2015,08,02,11,06,21.70
2015,08,02,11,07,21.60
2015,08,02,11,08,21.70
2015,08,02,11,09,21.80
2015,08,02,11,10,21.80
2015,08,02,11,11,21.80
2015,08,02,11,12,21.80
2015,08,02,11,13,21.80
2015,08,02,11,14,21.80
2015,08,02,11,15,21.80
2015,08,02,11,16,21.80
2015,08,02,11,17,21.90
2015,08,02,11,18,21.90
2015,08,02,11,19,21.90
2015,08,02,11,20,22.00
2015,08,02,11,21,22.00
2015,08,02,11,22,22.00
2015,08,02,11,23,21.90
2015,08,02,11,24,21.90
2015,08,02,11,25,21.90
2015,08,02,11,26,22.00
2015,08,02,11,27,22.00
2015,08,02,11,28,22.00
2015,08,02,11,29,22.00
2015,08,02,11,30,22.00
2015,08,02,11,31,22.00
2015,08,02,11,32,22.10
2015,08,02,11,33,22.10
2015,08,02,11,34,22.20
2015,08,02,11,35,22.30
2015,08,02,11,36,22.20
2015,08,02,11,37,22.20
2015,08,02,11,38,22.30
2015,08,02,11,39,22.30
2015,08,02,11,40,22.40
2015,08,02,11,41,22.40
2015,08,02,11,42,22.50
2015,08,02,11,43,22.60
2015,08,02,11,44,22.60
2015,08,02,11,45,22.70
2015,08,02,11,46,22.80
2015,08,02,11,47,22.90
2015,08,02,11,48,23.00
2015,08,02,11,49,23.00
2015,08,02,11,50,23.10
2015,08,02,11,51,23.10
2015,08,02,11,52,23.10
2015,08,02,11,53,23.10
2015,08,02,11,54,23.10
2015,08,02,11,55,23.10
2015,08,02,11,56,23.20
2015,08,02,11,57,23.20
2015,08,02,11,58,23.30
2015,08,02,11,59,23.30
2015,08,02,12,00,23.30
2015,08,02,12,01,23.30
2015,08,02,12,02,23.20
2015,08,02,12,03,23.20
2015,08,02,12,04,23.20
2015,08,02,12,05,23.20
2015,08,02,12,06,23.20
2015,08,02,12,07,23.30
2015,08,02,12,08,23.30
2015,08,02,12,09,23.30
2015,08,02,12,10,23.40
2015,08,02,12,11,23.40
2015,08,02,12,12,23.50
2015,08,02,12,13,23.60
2015,08,02,12,14,23.70
2015,08,02,12,15,23.70
2015,08,02,12,16,23.70
2015,08,02,12,17,23.80
2015,08,02,12,18,23.80
2015,08,02,12,19,23.80
2015,08,02,12,20,23.80
2015,08,02,12,21,23.80
2015,08,02,12,22,23.80
2015,08,02,12,23,23.80
2015,08,02,12,24,23.90
2015,08,02,12,25,23.80
2015,08,02,12,26,23.80
2015,08,02,12,27,23.80
2015,08,02,12,28,23.80
2015,08,02,12,29,23.80
2015,08,02,12,30,23.80
2015,08,02,12,31,23.80
2015,08,02,12,32,23.80
2015,08,02,12,33,23.80
2015,08,02,12,34,23.90
2015,08,02,12,35,23.90
2015,08,02,12,36,23.90
2015,08,02,12,37,23.90
2015,08,02,12,38,23.80
2015,08,02,12,39,23.90
2015,08,02,12,40,23.90
2015,08,02,12,41,23.90
2015,08,02,12,42,23.90
2015,08,02,12,43,24.00
2015,08,02,12,44,24.00
2015,08,02,12,45,24.00
2015,08,02,12,46,24.10
2015,08,02,12,47,24.10
2015,08,02,12,48,24.10
2015,08,02,12,49,24.10
2015,08,02,12,50,24.10
2015,08,02,12,51,24.00
2015,08,02,12,52,24.00
2015,08,02,12,53,24.00
2015,08,02,12,54,24.00
2015,08,02,12,55,23.90
2015,08,02,12,56,23.90
2015,08,02,12,57,23.80
2015,08,02,12,58,23.80
2015,08,02,12,59,23.70
2015,08,02,13,00,23.70
2015,08,02,13,01,23.80
2015,08,02,13,02,23.80
2015,08,02,13,03,23.80
2015,08,02,13,04,23.90
2015,08,02,13,05,23.90
2015,08,02,13,06,24.00
2015,08,02,13,07,24.00
2015,08,02,13,08,24.10
2015,08,02,13,09,24.10
2015,08,02,13,10,24.10
2015,08,02,13,11,24.10
2015,08,02,13,12,24.10
2015,08,02,13,13,24.10
2015,08,02,13,14,24.20
2015,08,02,13,15,24.30
2015,08,02,13,16,24.40
2015,08,02,13,17,24.40
2015,08,02,13,18,24.40
2015,08,02,13,19,24.40
2015,08,02,13,20,24.40
2015,08,02,13,21,24.40
2015,08,02,13,22,24.40
2015,08,02,13,23,24.40
2015,08,02,13,24,24.40
2015,08,02,13,25,24.30
2015,08,02,13,26,24.20
2015,08,02,13,27,24.10
2015,08,02,13,28,24.10
2015,08,02,13,29,24.00
2015,08,02,13,30,24.00
2015,08,02,13,31,24.00
2015,08,02,13,32,24.00
2015,08,02,13,33,23.90
2015,08,02,13,34,23.90
2015,08,02,13,35,23.90
2015,08,02,13,36,23.90
2015,08,02,13,37,23.90
2015,08,02,13,38,23.80
2015,08,02,13,39,23.90
2015,08,02,13,40,23.90
2015,08,02,13,41,24.00
2015,08,02,13,42,24.10
2015,08,02,13,43,24.10
2015,08,02,13,44,24.20
2015,08,02,13,45,24.20
2015,08,02,13,46,24.30
2015,08,02,13,47,24.30
2015,08,02,13,48,24.20
2015,08,02,13,49,24.10
2015,08,02,13,50,24.10
2015,08,02,13,51,24.00
2015,08,02,13,52,24.00
2015,08,02,13,53,23.90
2015,08,02,13,54,23.90
2015,08,02,13,55,23.90
2015,08,02,13,56,24.00
2015,08,02,13,57,24.00
2015,08,02,13,58,24.00
2015,08,02,13,59,24.00
2015,08,02,14,00,24.00
2015,08,02,14,01,24.00
2015,08,02,14,02,24.00
2015,08,02,14,03,24.00
2015,08,02,14,04,24.10
2015,08,02,14,05,24.20
2015,08,02,14,06,24.20
2015,08,02,14,07,24.20
2015,08,02,14,08,24.20
2015,08,02,14,09,24.10
2015,08,02,14,10,24.10
2015,08,02,14,11,24.20
2015,08,02,14,12,24.20
2015,08,02,14,13,24.20
2015,08,02,14,14,24.20
2015,08,02,14,15,24.20
2015,08,02,14,16,24.20
2015,08,02,14,17,24.20
2015,08,02,14,18,24.20
2015,08,02,14,19,24.20
2015,08,02,14,20,24.20
2015,08,02,14,21,24.30
2015,08,02,14,22,24.20
2015,08,02,14,23,24.30
2015,08,02,14,24,24.30
2015,08,02,14,25,24.40
2015,08,02,14,26,24.50
2015,08,02,14,27,24.60
2015,08,02,14,28,24.60
2015,08,02,14,29,24.70
2015,08,02,14,30,24.80
2015,08,02,14,31,24.70
2015,08,02,14,32,24.70
2015,08,02,14,33,24.70
2015,08,02,14,34,24.60
2015,08,02,14,35,24.60
2015,08,02,14,36,24.60
2015,08,02,14,37,24.60
2015,08,02,14,38,24.60
2015,08,02,14,39,24.70
2015,08,02,14,40,24.70
2015,08,02,14,41,24.80
2015,08,02,14,42,24.80
2015,08,02,14,43,24.80
2015,08,02,14,44,24.90
2015,08,02,14,45,25.00
2015,08,02,14,46,25.00
2015,08,02,14,47,25.00
2015,08,02,14,48,25.00
2015,08,02,14,49,25.00
2015,08,02,14,50,25.00
2015,08,02,14,51,25.00
2015,08,02,14,52,25.10
2015,08,02,14,53,25.20
2015,08,02,14,54,25.30
2015,08,02,14,55,25.40
2015,08,02,14,56,25.50
2015,08,02,14,57,25.60
2015,08,02,14,58,25.60
2015,08,02,14,59,25.70
2015,08,02,15,00,25.70
2015,08,02,15,01,25.70
2015,08,02,15,02,25.80
2015,08,02,15,03,25.80
2015,08,02,15,04,25.80
2015,08,02,15,05,25.80
2015,08,02,15,06,25.90
2015,08,02,15,07,25.90
2015,08,02,15,08,26.00
2015,08,02,15,09,26.10
2015,08,02,15,10,26.10
2015,08,02,15,11,26.20
2015,08,02,15,12,26.30
2015,08,02,15,13,26.40
2015,08,02,15,14,26.50
2015,08,02,15,15,26.60
2015,08,02,15,16,26.60
2015,08,02,15,17,26.70
2015,08,02,15,18,26.80
2015,08,02,15,19,26.90
2015,08,02,15,20,26.90
2015,08,02,15,21,26.90
2015,08,02,15,22,26.90
2015,08,02,15,23,26.80
2015,08,02,15,24,26.80
2015,08,02,15,25,26.80
2015,08,02,15,26,26.70
2015,08,02,15,27,26.80
2015,08,02,15,28,26.70
2015,08,02,15,29,26.70
2015,08,02,15,30,26.70
2015,08,02,15,31,26.70
2015,08,02,15,32,26.70
2015,08,02,15,33,26.70
2015,08,02,15,34,26.70
2015,08,02,15,35,26.80
2015,08,02,15,36,26.80
2015,08,02,15,37,27.00
2015,08,02,15,38,27.10
2015,08,02,15,39,27.20
2015,08,02,15,40,27.20
2015,08,02,15,41,27.30
2015,08,02,15,42,27.30
2015,08,02,15,43,27.30
2015,08,02,15,44,27.30
2015,08,02,15,45,27.40
2015,08,02,15,46,27.60
2015,08,02,15,47,27.70
2015,08,02,15,48,27.80
2015,08,02,15,49,27.90
2015,08,02,15,50,28.00
2015,08,02,15,51,28.10
2015,08,02,15,52,28.20
2015,08,02,15,53,28.20
2015,08,02,15,54,28.20
2015,08,02,15,55,28.20
2015,08,02,15,56,28.10
2015,08,02,15,57,28.00
2015,08,02,15,58,28.00
2015,08,02,15,59,27.90
2015,08,02,16,00,27.90
2015,08,02,16,01,27.90
2015,08,02,16,02,27.90
2015,08,02,16,03,27.90
2015,08,02,16,04,27.90
2015,08,02,16,05,27.80
2015,08,02,16,06,27.80
2015,08,02,16,07,27.80
2015,08,02,16,08,27.80
2015,08,02,16,09,27.80
2015,08,02,16,10,27.80
2015,08,02,16,11,27.80
2015,08,02,16,12,27.80
2015,08,02,16,13,27.70
2015,08,02,16,14,27.60
2015,08,02,16,15,27.50
2015,08,02,16,16,27.40
2015,08,02,16,17,27.40
2015,08,02,16,18,27.40
2015,08,02,16,19,27.40
2015,08,02,16,20,27.40
2015,08,02,16,21,27.40
2015,08,02,16,22,27.50
2015,08,02,16,23,27.50
2015,08,02,16,24,27.60
2015,08,02,16,25,27.60
2015,08,02,16,26,27.70
2015,08,02,16,27,27.70
2015,08,02,16,28,27.70
2015,08,02,16,29,27.80
2015,08,02,16,30,27.80
2015,08,02,16,31,27.90
2015,08,02,16,32,27.90
2015,08,02,16,33,28.00
2015,08,02,16,34,28.00
2015,08,02,16,35,28.00
2015,08,02,16,36,28.00
2015,08,02,16,37,27.90
2015,08,02,16,38,27.90
2015,08,02,16,39,27.80
2015,08,02,16,40,27.80
2015,08,02,16,41,27.70
2015,08,02,16,42,27.80
2015,08,02,16,43,27.80
2015,08,02,16,44,27.80
2015,08,02,16,45,27.70
2015,08,02,16,46,27.70
2015,08,02,16,47,27.60
2015,08,02,16,48,27.60
2015,08,02,16,49,27.60
2015,08,02,16,50,27.70
2015,08,02,16,51,27.80
2015,08,02,16,52,27.80
2015,08,02,16,53,27.90
2015,08,02,16,54,27.90
2015,08,02,16,55,27.90
2015,08,02,16,56,27.90
2015,08,02,16,57,27.90
2015,08,02,16,58,27.90
2015,08,02,16,59,28.00
2015,08,02,17,00,28.00
2015,08,02,17,01,28.10
2015,08,02,17,02,28.10
2015,08,02,17,03,28.20
2015,08,02,17,04,28.20
2015,08,02,17,05,28.20
2015,08,02,17,06,28.30
2015,08,02,17,07,28.30
2015,08,02,17,08,28.40
2015,08,02,17,09,28.50
2015,08,02,17,10,28.50
2015,08,02,17,11,28.40
2015,08,02,17,12,28.40
2015,08,02,17,13,28.50
2015,08,02,17,14,28.50
2015,08,02,17,15,28.60
2015,08,02,17,16,28.60
2015,08,02,17,17,28.70
2015,08,02,17,18,28.70
2015,08,02,17,19,28.80